This is the latest recevied weather packets stored in our database for station/object JF2ZGN-13. If no packets are shown the sender has not sent any weather packets the latest 1 day(s).
| Time | Temp. | Humidity | Pressure | Rain* | Wind** | Luminosity | Snow |
|---|---|---|---|---|---|---|---|
| 1777974416 | 8.89° C | 37% | 913.4 hPa | 0 mm | 1.79 m/s, 229° | - | - |
| 1777973815 | 8.89° C | 39% | 913.3 hPa | 0 mm | 1.34 m/s, 243° | - | - |
| 1777973215 | 8.89° C | 42% | 913.2 hPa | 0 mm | 1.34 m/s, 245° | - | - |
| 1777972614 | 9.44° C | 39% | 913.2 hPa | 0 mm | 1.79 m/s, 253° | - | - |
| 1777972014 | 9.44° C | 39% | 913.1 hPa | 0 mm | 1.34 m/s, 233° | - | - |
| 1777971414 | 9.44° C | 42% | 913.1 hPa | 0 mm | 1.79 m/s, 228° | - | - |
| 1777970813 | 9.44° C | 39% | 913.2 hPa | 0 mm | 2.24 m/s, 226° | - | - |
| 1777970213 | 10° C | 37% | 913.2 hPa | 0 mm | 2.68 m/s, 191° | - | - |
| 1777969613 | 10° C | 38% | 913.2 hPa | 0 mm | 2.68 m/s, 228° | - | - |
| 1777969012 | 10° C | 36% | 913.1 hPa | 0 mm | 2.68 m/s, 217° | - | - |
| 1777968411 | 10° C | 35% | 913.1 hPa | 0 mm | 2.68 m/s, 211° | - | - |
| 1777967811 | 10° C | 40% | 913.1 hPa | 0 mm | 2.24 m/s, 231° | - | - |
| 1777967210 | 10.56° C | 38% | 913.2 hPa | 0 mm | 2.24 m/s, 208° | - | - |
| 1777966610 | 10.56° C | 41% | 913.1 hPa | 0 mm | 1.79 m/s, 252° | - | - |
| 1777966010 | 10.56° C | 46% | 913.1 hPa | 0 mm | 2.68 m/s, 242° | - | - |
| 1777965410 | 10.56° C | 44% | 913 hPa | 0 mm | 2.24 m/s, 214° | - | - |
| 1777964808 | 11.11° C | 47% | 913 hPa | 0 mm | 2.24 m/s, 205° | - | - |
| 1777964208 | 11.11° C | 45% | 912.9 hPa | 0 mm | 1.79 m/s, 200° | - | - |
| 1777963607 | 10.56° C | 48% | 912.9 hPa | 0 mm | 2.24 m/s, 204° | - | - |
| 1777963007 | 11.11° C | 43% | 912.9 hPa | 0 mm | 2.68 m/s, 198° | - | - |
* Rain since midnight (hover to see other rain measurements)
** Current wind speed in m/s (hover to see current wind gust speed)